Regional Weather Roundup
Issued by NWS

Home | Current Version | Previous Version | Text Only | Print | Product List | Glossary On
Versions: 1 2 3 4 5 6 7 8 9 10 11 12 13 14 15 16 17 18 19 20 21 22 23 24 25 26 27 28 29 30 31 32 33 34 35 36 37 38 39 40 41 42 43 44 45 46 47 48 49 50
000
ASUS43 KMKX 231021
RWRWI

WISCONSIN REGIONAL WEATHER ROUNDUP
NATIONAL WEATHER SERVICE MILWAUKEE/SULLIVAN WI
500 AM CDT WED JUL 23 2014

NOTE: "FAIR" INDICATES FEW OR NO CLOUDS BELOW 12,000 FEET WITH NO
SIGNIFICANT WEATHER AND/OR OBSTRUCTIONS TO VISIBILITY.

WIZ001-002-006>008-014>016-023>028-231100-
NORTHWEST WISCONSIN

CITY           SKY/WX    TMP DP  RH WIND       PRES   REMARKS
SUPERIOR ARPT  PTCLDY    51  51  99 CALM      30.20R FOG
ASHLAND        MOCLDY    54  53  97 W3        30.19R
HAYWARD        FOG       51  51 100 CALM      30.21R VSB 1/2
SIREN          CLEAR     52  50  94 CALM      30.21R
RICE LAKE        N/A     56  54  95 CALM      30.21S FOG
LADYSMITH      CLEAR     56  55  96 CALM      30.21R FOG
EAU CLAIRE     FOG       56  55  97 CALM      30.19R VSB 1
MENOMONIE      SUNNY     60  59  95 CALM      30.20R
NEW RICHMOND   CLEAR     56  56  99 CALM      30.22R FOG
OSCEOLA        CLEAR     55  55 100 CALM      30.24R
$$

WIZ003>005-009-010-017-018-231100-
NORTH CENTRAL WISCONSIN

CITY           SKY/WX    TMP DP  RH WIND       PRES   REMARKS
WOODRUFF       FOG       52  49  90 CALM      30.20R VSB 1
RHINELANDER    CLEAR     48  48 100 CALM      30.21R FOG
EAGLE RIVER    CLEAR     51  51 100 N3        30.20R
LAND O LAKES   MOCLDY    51  51 100 CALM      30.21R
PHILLIPS       PTCLDY    51  51  99 CALM      30.19R
TOMAHAWK       FOG       48  47  97 CALM      30.20R VSB 1/4
MEDFORD        FOG       51  51  99 CALM      30.19R VSB 1
MERRILL        FOG       49  49 100 CALM      30.19R VSB 1/4
$$

WIZ029-030-035-036-043>047-231100-
CENTRAL WISCONSIN

CITY           SKY/WX    TMP DP  RH WIND       PRES   REMARKS
WAUSAU         CLEAR     57  56  96 CALM      30.17R
MOSINEE        CLEAR     55  55 100 N5        30.19R
MARSHFIELD     CLEAR     58  56  93 CALM      30.18R
STEVENS POINT    N/A     52  52  99 CALM      30.18R FOG
WAUPACA        CLEAR     58  56  94 CALM      30.17R
WAUTOMA        CLEAR     55  52  90 CALM      30.18R
WISC RAPIDS    FOG       57  55  93 CALM      30.19R VSB 3/4
CAMP DOUGLAS   FOG       51  51 100 NW3       30.17S VSB 1/4
$$

WIZ011>013-019>022-031-037>040-048>050-231100-
NORTHEAST WISCONSIN

CITY           SKY/WX    TMP DP  RH WIND       PRES   REMARKS
ANTIGO         FOG       50  50 100 CALM      30.19R VSB 3/4
STURGEON BAY   PTCLDY    59  54  82 N13       30.14R
GREEN BAY      CLEAR     58  56  93 N7        30.14R
MANITOWOC      PTCLDY    59  55  87 N6        30.13S
APPLETON       CLEAR     55  54  94 NW6       30.16R
CLINTONVILLE   CLEAR     55  54  94 N3        30.16R
OSHKOSH        CLEAR     60  56  86 N7        30.14R
$$

WIZ032>034-041-042-053>061-231100-
SOUTHWEST WISCONSIN

CITY           SKY/WX    TMP DP  RH WIND       PRES   REMARKS
LA CROSSE      CLEAR     62  58  86 N3        30.17R
SPARTA         CLEAR     53  51  95 CALM      30.18S
VIROQUA        FAIR      59  58  96 NE3       30.18S
BOSCOBEL       CLEAR     60  57  89 E3        30.16R
PRAIRIE DU CHI CLEAR     65  56  72 CALM      30.16R
PLATTEVILLE    FAIR      61  58  91 NE6       30.16R
$$

WIZ056-057-062-063-064-067-068-231100-
SOUTH CENTRAL WISCONSIN

CITY           SKY/WX    TMP DP  RH WIND       PRES   REMARKS
BARABOO/DELLS  CLEAR     59  55  86 CALM      30.17R
LONE ROCK      CLEAR     65  59  81 NE6       30.16R
WATERTOWN      CLEAR     61  57  88 N5        30.13R
MADISON        CLEAR     61  56  83 N7        30.15R
MIDDLETON      FAIR      62  57  86 NE6       30.16R
MONROE         CLEAR     61  59  94 N7        30.14R
JANESVILLE     PTCLDY    63  59  88 E5        30.12R
$$

WIZ051-052-058>065-066-070>072-231100-
SOUTHEAST WISCONSIN

CITY           SKY/WX    TMP DP  RH WIND       PRES   REMARKS
MILWAUKEE      CLEAR     61  55  81 N17       30.10F
WAUKESHA       CLEAR     57  54  88 N3        30.13S
MILWAUKEE/TIMM CLEAR     59  54  82 N8        30.13R
RACINE         CLEAR     61  55  81 N18G28    30.11S
BURLINGTON     CLEAR     58  55  90 N5        30.12R
KENOSHA        CLEAR     60  56  86 N9        30.09F
FOND DU LAC    PTCLDY    63  54  72 NE9       30.14S
SHEBOYGAN      CLEAR     57  54  89 NW5       30.13R
WEST BEND      CLEAR     57  52  82 NW3       30.14R
JUNEAU         CLEAR     58  55  88 NW3       30.15S
$$

LSZ147-162-231100-
LAKE SUPERIOR

STATION/POSITION TIME  TEMP    WIND        PRES    WAVE
                       AIR SEA DIR/SP/G            HT/PER
                 (UTC) (F)     (DEG/KT/KT) (MB)    (FT/S)
W MID LAKE BUOY  0950   53 39   50/  6/  6 1022.1R   1
PORT WING        0900   56     160/  3/  4 1022.0
SAXON HARBOR     0900          200/  3/  4 1021.7S
$$

LMZ867-665-643>646-231100-
LAKE MICHIGAN

STATION/POSITION TIME  TEMP    WIND        PRES    WAVE
                       AIR SEA DIR/SP/G            HT/PER
                 (UTC) (F)     (DEG/KT/KT) (MB)    (FT/S)
N MID LAKE BUOY  0950   55 52  320/ 14/ 17 1018.4R   2/ 4
NORTHPORT PIER   0900   62     350/ 16/ 19 1019.6R
KEWAUNEE LAKESHO 0900   59     320/  4/  5 1020.5R
SHEBOYGAN LAKESH 1000   62     330/  8/  9 1020.0R
PORT WASHINGTON  0900   62     350/  5/  9 1020.3
ATWATER BUOY     1000   53     350/ 12     1020.2F
MILWAUKEE LAKESH 1000   62     350/ 14/ 19   N/A
S MID LAKE BUOY  0950   61 60  340/ 19/ 21 1017.5R   5/ 7
KENOSHA   LAKESH 1000   61     360/ 20/ 24   N/A
$$

TC  - TEMPERATURE IN CELSIUS
VSB - VISIBILITY IN STATUTE MILES
WCI - WIND CHILL INDEX
HX  - HEAT INDEX



USA.gov is the U.S. government's official web portal to all federal, state and local government web resources and services.